N714BV EGPH-EDDH

Flight info

Callsign N714BV
Flight time 1h 23m
Altitude 39000
Route TLA Y96 AGPED DCT ERKIT N110 DOLAS L603 LAMSO DCT VALAM DCT GASTU DCT OSTOR/N0476F230 T904 RIBSO RIBSO7A
Aircraft C750/M-SBDE3FGHRWXY/S

Departure

Time 2026-05-06 16:51
Airport Edinburgh Airport (EGPH)

Arrival

Time 2026-05-06 18:15
Airport Hamburg Helmut Schmidt Airport (EDDH)
Time Latitude Longitude Altitude Speed Heading
2026-05-06 16:21 55.94680 -3.34802 113 ft 0 kts 149°
2026-05-06 16:35 55.94691 -3.34814 112 ft 5 kts 148°
2026-05-06 16:35 55.94705 -3.34831 110 ft 3 kts 134°
2026-05-06 16:36 55.94721 -3.34867 112 ft 0 kts 109°
2026-05-06 16:36 55.94723 -3.34863 112 ft 1 kts 66°
2026-05-06 16:36 55.94725 -3.34856 110 ft 0 kts 58°
2026-05-06 16:40 55.94754 -3.34800 113 ft 9 kts 27°
2026-05-06 16:40 55.94793 -3.34844 113 ft 10 kts 298°
2026-05-06 16:41 55.94824 -3.34943 113 ft 11 kts 299°
2026-05-06 16:41 55.94864 -3.35074 113 ft 12 kts 298°
2026-05-06 16:41 55.94909 -3.35220 112 ft 15 kts 298°
2026-05-06 16:41 55.94958 -3.35382 113 ft 15 kts 300°
2026-05-06 16:42 55.95006 -3.35535 112 ft 14 kts 298°
2026-05-06 16:42 55.95050 -3.35678 113 ft 12 kts 298°
2026-05-06 16:42 55.95101 -3.35809 113 ft 14 kts 307°
2026-05-06 16:42 55.95147 -3.35929 113 ft 10 kts 322°
2026-05-06 16:43 55.95204 -3.35986 111 ft 7 kts 323°
2026-05-06 16:43 55.95212 -3.36050 112 ft 8 kts 246°
2026-05-06 16:43 55.95173 -3.36165 112 ft 14 kts 239°
2026-05-06 16:43 55.95112 -3.36348 112 ft 20 kts 239°
2026-05-06 16:44 55.95040 -3.36560 113 ft 20 kts 239°
2026-05-06 16:44 55.94972 -3.36762 112 ft 18 kts 239°
2026-05-06 16:44 55.94908 -3.36951 110 ft 17 kts 239°
2026-05-06 16:44 55.94847 -3.37128 111 ft 16 kts 238°
2026-05-06 16:45 55.94790 -3.37296 112 ft 15 kts 239°
2026-05-06 16:45 55.94737 -3.37454 112 ft 14 kts 238°
2026-05-06 16:45 55.94687 -3.37602 111 ft 13 kts 239°
2026-05-06 16:45 55.94640 -3.37741 112 ft 13 kts 238°
2026-05-06 16:46 55.94595 -3.37872 112 ft 12 kts 241°
2026-05-06 16:46 55.94595 -3.37951 110 ft 5 kts 316°
2026-05-06 16:46 55.94624 -3.37984 110 ft 0 kts 329°
2026-05-06 16:47 55.94646 -3.38007 112 ft 8 kts 329°
2026-05-06 16:47 55.94710 -3.38064 109 ft 7 kts 359°
2026-05-06 16:47 55.94735 -3.38031 111 ft 0 kts 58°
2026-05-06 16:50 55.94742 -3.38009 112 ft 17 kts 59°
2026-05-06 16:51 55.95004 -3.37239 107 ft 123 kts 59°
2026-05-06 16:51 55.95505 -3.35771 484 ft 145 kts 59°
2026-05-06 16:51 55.96045 -3.34185 1208 ft 153 kts 62°
2026-05-06 16:51 55.96813 -3.32759 1875 ft 166 kts 39°
2026-05-06 16:52 55.97754 -3.31494 2651 ft 172 kts 41°
2026-05-06 16:52 55.98663 -3.30075 3462 ft 175 kts 44°
2026-05-06 16:52 55.99588 -3.28561 4050 ft 191 kts 44°
2026-05-06 16:52 56.00618 -3.26882 4417 ft 216 kts 43°
2026-05-06 16:53 56.01801 -3.24969 4726 ft 244 kts 43°
2026-05-06 16:53 56.03132 -3.22819 5229 ft 269 kts 42°
2026-05-06 16:53 56.04487 -3.20533 5951 ft 272 kts 46°
2026-05-06 16:53 56.05319 -3.17537 5956 ft 274 kts 81°
2026-05-06 16:54 56.05207 -3.14090 6554 ft 276 kts 100°
2026-05-06 16:54 56.04825 -3.10771 7725 ft 275 kts 108°
2026-05-06 16:54 56.03746 -3.07954 8681 ft 276 kts 139°
2026-05-06 16:54 56.02255 -3.05798 9840 ft 277 kts 144°
2026-05-06 16:55 56.00687 -3.03736 10628 ft 284 kts 151°
2026-05-06 16:55 55.98785 -3.02900 11385 ft 283 kts 180°
2026-05-06 16:55 55.96823 -3.03072 12321 ft 284 kts 186°
2026-05-06 16:55 55.94823 -3.03179 13156 ft 291 kts 182°
2026-05-06 16:56 55.92777 -3.02997 13905 ft 301 kts 179°
2026-05-06 16:56 55.90599 -3.02751 14082 ft 327 kts 180°
2026-05-06 16:56 55.88234 -3.02587 14116 ft 353 kts 181°
2026-05-06 16:56 55.85731 -3.02447 14609 ft 361 kts 180°
2026-05-06 16:57 55.83213 -3.02262 15338 ft 363 kts 180°
2026-05-06 16:57 55.80669 -3.02063 15983 ft 368 kts 180°
2026-05-06 16:57 55.78098 -3.01880 16689 ft 372 kts 181°
2026-05-06 16:57 55.75502 -3.01705 17380 ft 376 kts 181°
2026-05-06 16:58 55.72875 -3.01520 18057 ft 381 kts 181°
2026-05-06 16:58 55.70247 -3.01329 18684 ft 385 kts 181°
2026-05-06 16:58 55.67553 -3.01137 19315 ft 390 kts 181°
2026-05-06 16:58 55.64835 -3.00618 19844 ft 400 kts 170°
2026-05-06 16:59 55.62199 -2.98891 20479 ft 409 kts 156°
2026-05-06 16:59 55.59817 -2.96066 21094 ft 417 kts 144°
2026-05-06 16:59 55.57532 -2.92860 21707 ft 422 kts 144°
2026-05-06 16:59 55.55228 -2.89617 22335 ft 426 kts 144°
2026-05-06 17:00 55.52888 -2.86350 22926 ft 431 kts 144°
2026-05-06 17:00 55.50521 -2.83060 23524 ft 436 kts 144°
2026-05-06 17:00 55.48125 -2.79723 24038 ft 439 kts 143°
2026-05-06 17:00 55.45722 -2.76375 24601 ft 442 kts 143°
2026-05-06 17:01 55.43302 -2.73015 25137 ft 445 kts 143°
2026-05-06 17:01 55.40852 -2.69624 25643 ft 449 kts 143°
2026-05-06 17:01 55.38385 -2.66213 26155 ft 453 kts 143°
2026-05-06 17:01 55.35894 -2.62771 26682 ft 457 kts 143°
2026-05-06 17:02 55.33380 -2.59304 27191 ft 461 kts 143°
2026-05-06 17:02 55.30845 -2.55815 26800 ft 466 kts 142°
2026-05-06 17:02 55.28271 -2.52278 28201 ft 469 kts 143°
2026-05-06 17:02 55.25693 -2.48740 28745 ft 473 kts 143°
2026-05-06 17:03 55.23122 -2.45220 29200 ft 477 kts 143°
2026-05-06 17:03 55.20497 -2.41631 29743 ft 481 kts 143°
2026-05-06 17:03 55.17848 -2.38015 30204 ft 485 kts 143°
2026-05-06 17:03 55.15176 -2.34374 30619 ft 489 kts 143°
2026-05-06 17:04 55.12480 -2.30707 31036 ft 492 kts 143°
2026-05-06 17:04 55.09783 -2.27045 31662 ft 490 kts 143°
2026-05-06 17:04 55.07091 -2.23396 32274 ft 490 kts 143°
2026-05-06 17:04 55.04400 -2.19756 32870 ft 490 kts 143°
2026-05-06 17:05 55.01710 -2.16123 33552 ft 488 kts 143°
2026-05-06 17:05 54.99033 -2.12512 34194 ft 486 kts 143°
2026-05-06 17:05 54.96361 -2.08915 34779 ft 484 kts 143°
2026-05-06 17:05 54.93707 -2.05348 35361 ft 482 kts 143°
2026-05-06 17:06 54.91054 -2.01789 35912 ft 481 kts 143°
2026-05-06 17:06 54.88401 -1.98239 36476 ft 480 kts 144°
2026-05-06 17:06 54.85754 -1.94700 37060 ft 480 kts 144°
2026-05-06 17:06 54.83112 -1.91174 37640 ft 479 kts 144°
2026-05-06 17:07 54.80475 -1.87661 38241 ft 478 kts 144°
2026-05-06 17:07 54.77838 -1.84154 38811 ft 477 kts 144°
2026-05-06 17:07 54.75199 -1.80652 39046 ft 483 kts 144°
2026-05-06 17:07 54.72498 -1.77075 39048 ft 494 kts 144°
2026-05-06 17:08 54.69734 -1.73417 39058 ft 505 kts 144°
2026-05-06 17:08 54.64051 -1.65913 39076 ft 522 kts 144°
2026-05-06 17:09 54.58214 -1.58236 39085 ft 530 kts 144°
2026-05-06 17:09 54.52309 -1.50501 39086 ft 535 kts 144°
2026-05-06 17:10 54.46422 -1.42814 39075 ft 534 kts 144°
2026-05-06 17:10 54.40494 -1.35108 39073 ft 534 kts 144°
2026-05-06 17:11 54.34561 -1.27420 39067 ft 534 kts 144°
2026-05-06 17:11 54.29619 -1.21041 39071 ft 534 kts 144°
2026-05-06 17:12 54.23679 -1.13398 39054 ft 534 kts 144°
2026-05-06 17:12 54.17741 -1.05787 39065 ft 533 kts 145°
2026-05-06 17:13 54.11794 -0.98191 39046 ft 534 kts 145°
2026-05-06 17:13 54.05845 -0.90620 39042 ft 534 kts 145°
2026-05-06 17:14 53.99885 -0.83064 39044 ft 534 kts 145°
2026-05-06 17:14 53.93933 -0.75545 39047 ft 533 kts 145°
2026-05-06 17:15 53.88012 -0.68093 39047 ft 533 kts 145°
2026-05-06 17:15 53.82052 -0.60618 39039 ft 533 kts 145°
2026-05-06 17:16 53.76090 -0.53169 39040 ft 533 kts 145°
2026-05-06 17:16 53.70124 -0.45740 39044 ft 533 kts 145°
2026-05-06 17:17 53.64156 -0.38337 39043 ft 532 kts 145°
2026-05-06 17:17 53.58269 -0.30766 39034 ft 534 kts 139°
2026-05-06 17:18 53.53445 -0.21252 39039 ft 537 kts 127°
2026-05-06 17:18 53.49141 -0.10994 39048 ft 537 kts 128°
2026-05-06 17:19 53.44504 -0.01192 39052 ft 536 kts 128°
2026-05-06 17:19 53.40097 0.08864 39046 ft 535 kts 128°
2026-05-06 17:20 53.35583 0.18764 39043 ft 534 kts 130°
2026-05-06 17:20 53.31005 0.28573 39033 ft 535 kts 127°
2026-05-06 17:21 53.26537 0.38519 39034 ft 535 kts 129°
2026-05-06 17:21 53.21965 0.48293 39018 ft 534 kts 128°
2026-05-06 17:22 53.17472 0.58142 39020 ft 532 kts 129°
2026-05-06 17:22 53.12917 0.67868 39003 ft 532 kts 129°
2026-05-06 17:23 53.08434 0.77561 39002 ft 534 kts 129°
2026-05-06 17:23 53.03869 0.87285 38994 ft 532 kts 129°
2026-05-06 17:24 52.99376 0.97037 38985 ft 532 kts 126°
2026-05-06 17:24 52.97747 1.02556 38976 ft 535 kts 110°
2026-05-06 17:24 52.96857 1.08555 39006 ft 538 kts 102°
2026-05-06 17:25 52.95501 1.20778 39011 ft 539 kts 101°
2026-05-06 17:25 52.94051 1.32961 39002 ft 539 kts 102°
2026-05-06 17:26 52.92631 1.45154 39008 ft 539 kts 101°
2026-05-06 17:26 52.91179 1.57321 39005 ft 537 kts 102°
2026-05-06 17:27 52.89724 1.69462 38998 ft 537 kts 102°
2026-05-06 17:27 52.88256 1.81594 38998 ft 537 kts 102°
2026-05-06 17:28 52.86773 1.93728 38992 ft 537 kts 102°
2026-05-06 17:28 52.85290 2.05773 38986 ft 539 kts 103°
2026-05-06 17:29 52.83781 2.17904 38989 ft 538 kts 102°
2026-05-06 17:29 52.82262 2.30017 38978 ft 538 kts 103°
2026-05-06 17:30 52.80728 2.42133 38984 ft 538 kts 103°
2026-05-06 17:30 52.79185 2.54227 38979 ft 537 kts 103°
2026-05-06 17:31 52.77631 2.66283 38970 ft 537 kts 103°
2026-05-06 17:31 52.76069 2.78323 38967 ft 537 kts 103°
2026-05-06 17:32 52.74489 2.90375 38967 ft 537 kts 103°
2026-05-06 17:32 52.73783 3.02636 38954 ft 539 kts 88°
2026-05-06 17:33 52.75066 3.14811 38958 ft 539 kts 76°
2026-05-06 17:33 52.77093 3.26724 38963 ft 538 kts 76°
2026-05-06 17:34 52.78528 3.38864 38962 ft 538 kts 80°
2026-05-06 17:34 52.80178 3.50931 38962 ft 538 kts 76°
2026-05-06 17:35 52.81731 3.62946 38954 ft 538 kts 79°
2026-05-06 17:35 52.83286 3.75056 38954 ft 538 kts 78°
2026-05-06 17:36 52.85603 3.93235 38954 ft 538 kts 79°
2026-05-06 17:36 52.87166 4.05350 38941 ft 538 kts 78°
2026-05-06 17:37 52.88675 4.17515 38957 ft 540 kts 79°
2026-05-06 17:37 52.90196 4.29679 38954 ft 541 kts 79°
2026-05-06 17:38 52.91707 4.41906 38951 ft 541 kts 78°
2026-05-06 17:38 52.94019 4.53787 38954 ft 543 kts 69°
2026-05-06 17:39 52.96534 4.65589 38955 ft 543 kts 73°
2026-05-06 17:39 52.98873 4.77510 38946 ft 544 kts 71°
2026-05-06 17:40 53.01352 4.89355 38948 ft 544 kts 72°
2026-05-06 17:40 53.03694 5.01284 38948 ft 543 kts 71°
2026-05-06 17:41 53.06112 5.13132 38826 ft 534 kts 73°
2026-05-06 17:41 53.08409 5.24851 38931 ft 534 kts 73°
2026-05-06 17:42 53.10760 5.36593 38927 ft 535 kts 73°
2026-05-06 17:42 53.11914 5.42492 38802 ft 536 kts 73°
2026-05-06 17:42 53.13059 5.48382 38657 ft 536 kts 73°
2026-05-06 17:43 53.14225 5.54325 38108 ft 540 kts 73°
2026-05-06 17:43 53.15392 5.60271 37411 ft 541 kts 73°
2026-05-06 17:43 53.16552 5.66234 36734 ft 542 kts 74°
2026-05-06 17:43 53.17711 5.72237 36086 ft 543 kts 74°
2026-05-06 17:44 53.18865 5.78205 35456 ft 538 kts 74°
2026-05-06 17:44 53.20010 5.84121 34836 ft 533 kts 75°
2026-05-06 17:44 53.21136 5.89985 34230 ft 529 kts 75°
2026-05-06 17:44 53.22249 5.95808 33587 ft 524 kts 75°
2026-05-06 17:45 53.23346 6.01558 32902 ft 517 kts 75°
2026-05-06 17:45 53.24431 6.07244 32232 ft 512 kts 75°
2026-05-06 17:45 53.25502 6.12887 31577 ft 506 kts 75°
2026-05-06 17:45 53.26554 6.18454 30930 ft 500 kts 75°
2026-05-06 17:46 53.27595 6.23967 30308 ft 495 kts 75°
2026-05-06 17:46 53.28621 6.29419 29641 ft 490 kts 74°
2026-05-06 17:46 53.29634 6.34820 28936 ft 484 kts 74°
2026-05-06 17:46 53.30632 6.40155 28238 ft 478 kts 74°
2026-05-06 17:47 53.31617 6.45437 27571 ft 473 kts 74°
2026-05-06 17:47 53.32588 6.50659 26916 ft 467 kts 74°
2026-05-06 17:47 53.33546 6.55824 26276 ft 462 kts 74°
2026-05-06 17:47 53.34490 6.60930 25935 ft 457 kts 74°
2026-05-06 17:48 53.35433 6.66035 25943 ft 460 kts 74°
2026-05-06 17:48 53.36374 6.71148 25935 ft 460 kts 74°
2026-05-06 17:48 53.37313 6.76262 25941 ft 460 kts 75°
2026-05-06 17:48 53.38250 6.81381 25939 ft 459 kts 75°
2026-05-06 17:49 53.39173 6.86438 25937 ft 460 kts 75°
2026-05-06 17:49 53.40107 6.91571 25938 ft 460 kts 75°
2026-05-06 17:49 53.41036 6.96694 25938 ft 460 kts 75°
2026-05-06 17:49 53.41964 7.01823 25922 ft 459 kts 75°
2026-05-06 17:50 53.42889 7.06951 25921 ft 459 kts 75°
2026-05-06 17:50 53.43812 7.12078 25926 ft 459 kts 75°
2026-05-06 17:50 53.44733 7.17211 25926 ft 459 kts 75°
2026-05-06 17:50 53.45651 7.22347 25924 ft 460 kts 75°
2026-05-06 17:51 53.46570 7.27503 25908 ft 461 kts 75°
2026-05-06 17:51 53.47488 7.32666 25908 ft 461 kts 75°
2026-05-06 17:51 53.48406 7.37830 25908 ft 461 kts 75°
2026-05-06 17:51 53.49319 7.42991 25905 ft 461 kts 75°
2026-05-06 17:52 53.50230 7.48160 25897 ft 461 kts 75°
2026-05-06 17:52 53.51139 7.53340 25918 ft 465 kts 75°
2026-05-06 17:52 53.52034 7.58456 25443 ft 459 kts 75°
2026-05-06 17:52 53.52932 7.63606 24789 ft 458 kts 75°
2026-05-06 17:53 53.53829 7.68735 24143 ft 456 kts 75°
2026-05-06 17:53 53.54715 7.73830 23511 ft 452 kts 75°
2026-05-06 17:53 53.55590 7.78882 22768 ft 447 kts 75°
2026-05-06 17:53 53.56453 7.83877 22041 ft 442 kts 75°
2026-05-06 17:54 53.57305 7.88816 21333 ft 437 kts 75°
2026-05-06 17:54 53.58146 7.93703 20635 ft 432 kts 75°
2026-05-06 17:54 53.58974 7.98541 19966 ft 428 kts 74°
2026-05-06 17:54 53.59792 8.03324 19262 ft 423 kts 74°
2026-05-06 17:55 53.60588 8.07999 18543 ft 410 kts 74°
2026-05-06 17:55 53.61359 8.12537 17786 ft 406 kts 74°
2026-05-06 17:55 53.62128 8.17071 16993 ft 401 kts 74°
2026-05-06 17:55 53.62891 8.21573 16224 ft 398 kts 74°
2026-05-06 17:56 53.63641 8.26027 15467 ft 391 kts 74°
2026-05-06 17:56 53.64381 8.30428 14728 ft 389 kts 74°
2026-05-06 17:56 53.64877 8.33377 14241 ft 385 kts 74°
2026-05-06 17:56 53.65598 8.37674 13515 ft 377 kts 74°
2026-05-06 17:57 53.66304 8.41899 12722 ft 372 kts 74°
2026-05-06 17:57 53.67000 8.46074 11968 ft 368 kts 75°
2026-05-06 17:57 53.67689 8.50213 11214 ft 364 kts 75°
2026-05-06 17:57 53.68366 8.54295 10916 ft 361 kts 75°
2026-05-06 17:58 53.69046 8.58388 10921 ft 365 kts 75°
2026-05-06 17:58 53.69728 8.62516 10921 ft 365 kts 75°
2026-05-06 17:58 53.70399 8.66597 10918 ft 349 kts 75°
2026-05-06 17:58 53.71013 8.70336 10903 ft 315 kts 75°
2026-05-06 17:59 53.71593 8.73877 10711 ft 314 kts 75°
2026-05-06 17:59 53.72171 8.77400 10219 ft 308 kts 75°
2026-05-06 17:59 53.72729 8.80816 9727 ft 304 kts 75°
2026-05-06 17:59 53.73287 8.84241 9187 ft 300 kts 75°
2026-05-06 18:00 53.73834 8.87610 8654 ft 296 kts 75°
2026-05-06 18:00 53.74274 8.90975 8089 ft 292 kts 86°
2026-05-06 18:00 53.73859 8.94291 7458 ft 289 kts 115°
2026-05-06 18:00 53.72886 8.97202 6976 ft 284 kts 123°
2026-05-06 18:01 53.71843 8.99985 6918 ft 280 kts 123°
2026-05-06 18:01 53.70783 9.02767 6915 ft 285 kts 124°
2026-05-06 18:01 53.69718 9.05570 6908 ft 283 kts 123°
2026-05-06 18:01 53.68650 9.08381 6905 ft 287 kts 124°
2026-05-06 18:02 53.67584 9.11200 6903 ft 284 kts 124°
2026-05-06 18:02 53.66522 9.14007 6932 ft 283 kts 124°
2026-05-06 18:02 53.65458 9.16815 7005 ft 285 kts 124°
2026-05-06 18:02 53.64392 9.19618 7004 ft 284 kts 123°
2026-05-06 18:03 53.63321 9.22421 6576 ft 278 kts 123°
2026-05-06 18:03 53.62314 9.25047 6073 ft 258 kts 123°
2026-05-06 18:03 53.61354 9.27488 5533 ft 242 kts 125°
2026-05-06 18:03 53.60145 9.29435 4966 ft 249 kts 141°
2026-05-06 18:04 53.58739 9.31133 4460 ft 243 kts 143°
2026-05-06 18:04 53.57369 9.32727 4009 ft 237 kts 143°
2026-05-06 18:04 53.56013 9.34277 4002 ft 235 kts 144°
2026-05-06 18:04 53.54656 9.35811 4015 ft 232 kts 144°
2026-05-06 18:05 53.53316 9.37341 4015 ft 233 kts 143°
2026-05-06 18:05 53.51973 9.38881 4024 ft 233 kts 143°
2026-05-06 18:05 53.50623 9.40408 4027 ft 234 kts 143°
2026-05-06 18:05 53.49272 9.41931 4026 ft 234 kts 144°
2026-05-06 18:06 53.47929 9.43474 4022 ft 234 kts 143°
2026-05-06 18:06 53.46578 9.45007 4023 ft 235 kts 143°
2026-05-06 18:06 53.45482 9.46946 3945 ft 229 kts 113°
2026-05-06 18:06 53.45290 9.49523 4000 ft 223 kts 85°
2026-05-06 18:07 53.45409 9.52085 3877 ft 214 kts 83°
2026-05-06 18:07 53.45535 9.54646 3147 ft 225 kts 83°
2026-05-06 18:07 53.45648 9.57183 3028 ft 217 kts 84°
2026-05-06 18:07 53.45757 9.59679 3034 ft 218 kts 83°
2026-05-06 18:08 53.45861 9.62243 3024 ft 216 kts 84°
2026-05-06 18:08 53.46272 9.64608 3007 ft 213 kts 63°
2026-05-06 18:08 53.47100 9.66691 3026 ft 218 kts 51°
2026-05-06 18:08 53.48059 9.68627 3035 ft 216 kts 50°
2026-05-06 18:09 53.49017 9.70554 3044 ft 213 kts 50°
2026-05-06 18:09 53.49907 9.72349 3021 ft 185 kts 50°
2026-05-06 18:09 53.50681 9.73910 3020 ft 166 kts 50°
2026-05-06 18:09 53.51416 9.75393 3021 ft 165 kts 50°
2026-05-06 18:10 53.52150 9.76875 3024 ft 165 kts 50°
2026-05-06 18:10 53.52862 9.78312 2892 ft 148 kts 50°
2026-05-06 18:10 53.53458 9.79511 2705 ft 121 kts 49°
2026-05-06 18:10 53.53976 9.80553 2555 ft 114 kts 50°
2026-05-06 18:11 53.54478 9.81565 2412 ft 111 kts 49°
2026-05-06 18:11 53.54967 9.82552 2268 ft 109 kts 49°
2026-05-06 18:11 53.55451 9.83522 2125 ft 106 kts 50°
2026-05-06 18:11 53.55926 9.84482 1980 ft 106 kts 51°
2026-05-06 18:12 53.56394 9.85422 1835 ft 104 kts 50°
2026-05-06 18:12 53.56863 9.86370 1695 ft 106 kts 50°
2026-05-06 18:12 53.57329 9.87311 1547 ft 104 kts 51°
2026-05-06 18:12 53.57796 9.88253 1405 ft 108 kts 50°
2026-05-06 18:13 53.58272 9.89222 1257 ft 108 kts 50°
2026-05-06 18:13 53.58764 9.90199 1075 ft 112 kts 50°
2026-05-06 18:13 53.59269 9.91201 936 ft 111 kts 50°
2026-05-06 18:13 53.59763 9.92195 783 ft 113 kts 51°
2026-05-06 18:14 53.60256 9.93203 637 ft 110 kts 50°
2026-05-06 18:14 53.60767 9.94230 477 ft 116 kts 51°
2026-05-06 18:14 53.61292 9.95268 294 ft 115 kts 52°
2026-05-06 18:14 53.61801 9.96313 121 ft 114 kts 51°
2026-05-06 18:15 53.62273 9.97276 38 ft 98 kts 51°
2026-05-06 18:15 53.62572 9.97883 38 ft 37 kts 51°
2026-05-06 18:15 53.62711 9.98166 39 ft 29 kts 50°
2026-05-06 18:15 53.62757 9.98325 40 ft 11 kts 109°
2026-05-06 18:16 53.62709 9.98403 42 ft 8 kts 143°
2026-05-06 18:16 53.62703 9.98412 42 ft 0 kts 140°
2026-05-06 18:17 53.62689 9.98431 43 ft 0 kts 139°
2026-05-06 18:17 53.62667 9.98461 43 ft 8 kts 144°
2026-05-06 18:17 53.62627 9.98434 43 ft 10 kts 241°
2026-05-06 18:18 53.62577 9.98325 43 ft 13 kts 230°
2026-05-06 18:18 53.62516 9.98208 43 ft 13 kts 224°
2026-05-06 18:18 53.62446 9.98108 43 ft 13 kts 219°
2026-05-06 18:18 53.62382 9.97994 43 ft 13 kts 230°
2026-05-06 18:19 53.62324 9.97877 43 ft 13 kts 230°
2026-05-06 18:19 53.62267 9.97759 43 ft 13 kts 230°
2026-05-06 18:19 53.62211 9.97680 43 ft 5 kts 173°
2026-05-06 18:19 53.62193 9.97714 43 ft 0 kts 102°